Simultaneous Nadir Overpasses (SNOs) Predictions

Prediction of SNOs between FY3D and TERRA Satellite Orbit:

Table of predicted SNOs for the next 14.0 days since TLE Epoch: 5/18/2024
Index Date (FY3D) Time (FY3D) Lat,Lon (FY3D) SZA (FY3D ) Date (TERRA) Time (TERRA) Lat,Lon (TERRA) SZA (TERRA ) Distance(km) Time Diff (sec)
1 05/20/2024 08:03:01 75.53, 59.42 55.35 05/20/2024 08:03:30 75.54, 59.34 55.35 2.22 29
2 05/20/2024 08:53:45 -75.50,-133.15 124.70 05/20/2024 08:52:53 -75.50,-133.11 124.70 1.28 52
3 05/22/2024 19:15:58 75.61,-109.00 54.93 05/22/2024 19:16:51 75.60,-108.86 54.93 3.94 53
4 05/22/2024 20:06:41 -75.52, 58.60 125.17 05/22/2024 20:06:15 -75.52, 58.57 125.17 0.87 26
5 05/25/2024 06:28:58 75.88, 81.91 54.75 05/25/2024 06:30:08 75.76, 83.21 54.63 37.91 70
6 05/25/2024 07:19:36 -75.55,-109.70 125.58 05/25/2024 07:19:35 -75.54,-109.76 125.60 2.66 1
7 05/25/2024 08:10:10 75.01, 59.30 53.88 05/25/2024 08:09:04 75.07, 56.65 53.92 76.61 66
8 05/27/2024 18:32:32 -75.61, 81.95 125.94 05/27/2024 18:32:54 -75.59, 82.02 125.96 2.76 22
9 05/27/2024 19:23:16 75.53,-110.50 53.98 05/27/2024 19:22:15 75.52,-110.51 53.96 1.65 61
10 05/30/2024 05:45:27 -75.63, -86.31 126.30 05/30/2024 05:46:12 -75.64, -86.21 126.29 2.87 45
11 05/30/2024 06:36:11 75.56, 81.23 53.63 05/30/2024 06:35:33 75.56, 81.23 53.63 0.33 38



Historial Predications of SNOs between FY3D and TERRA
